This demonstration page uses our WeatherBlox Daily Observations layout. Learn more.

Left ArrowRight Arrow

34.02893, -84.19858

Hourly Observations for August 6, 2015

Temp ( °F °C ) Dew Point ( °F °C ) Humidity (%) Winds ( mph kmh ) Pressure ( in mb ) Visibility ( mi km ) Precip ( " mm )
12:53 am 00:53 Mostly Cloudy 80 26.7 71 21.7 74 74 Calm 29.94 1014 10 16 0.00 0.00
1:53 am 01:53 Clear 79 26.1 71 21.7 77 77 WSW 5 7 29.92 1013 10 16 0.00 0.00
2:53 am 02:53 Clear 78 25.6 71 21.7 79 79 SW 6 9 29.89 1012 10 16 0.00 0.00
3:53 am 03:53 Clear 77 25 71 21.7 82 82 SW 8 13 29.90 1012 10 16 0.00 0.00
6:36 am 06:36 Mostly Cloudy 75 24 73 23 94 94 WSW 8 13 29.97 1015 10 16 0.00 0.00
6:53 am 06:53 Cloudy 76 24.4 73 22.8 91 91 SW 6 9 29.92 1013 10 16 0.00 0.00
6:56 am 06:56 Cloudy 75 24 73 23 94 94 SW 6 9 29.91 1013 10 16 0.00 0.00
7:53 am 07:53 Cloudy 76 24.4 73 22.8 91 91 SW 7 11 29.93 1014 9 14 0.00 0.00
8:27 am 08:27 Cloudy 78 25.6 73 22.8 85 85 SSW 10 17 29.94 1014 10 16 0.00 0.00
8:53 am 08:53 Mostly Cloudy 78 25.6 72 22.2 82 82 SW 12 19 29.95 1014 10 16 0.00 0.00
9:28 am 09:28 Partly Cloudy 79 26 72 22 79 79 WSW 6 9 29.94 1014 10 16 0.00 0.00
9:53 am 09:53 Partly Cloudy 82 27.8 72 22.2 72 72 WSW 7 11 29.94 1014 10 16 0.00 0.00
12:30 pm 12:30 Mostly Cloudy 88 31 73 23 62 62 W 10 17 29.91 1013 9 14 0.00 0.00
12:53 pm 12:53 Mostly Cloudy 86 30 73 22.8 65 65 W 8 13 29.90 1013 8 13 0.00 0.00
1:53 pm 13:53 Mostly Cloudy 90 32.2 72 22.2 56 56 SW 14 22 29.88 1012 9 14 0.00 0.00
2:00 pm 14:00 Partly Cloudy 90 32.2 72 22.2 56 56 SW 10 17 29.88 1012 9 14 0.00 0.00
2:40 pm 14:40 Partly Cloudy with Thunderstorms 75 24 66 19 74 74 WSW 13 20 29.88 1012 1 1 0.00 0.00
2:42 pm 14:42 Partly Cloudy with Thunderstorms 75 24 66 19 74 74 WSW 10 17 29.88 1012 1 2 0.00 0.00
2:44 pm 14:44 Partly Cloudy with Thunderstorms 75 24 68 20 78 78 W 12 19 29.88 1012 4 6 0.00 0.00
2:53 pm 14:53 Partly Cloudy with Thunderstorms 74 23.3 68 20 82 82 WNW 7 11 29.88 1012 10 16 0.63 16.00
3:01 pm 15:01 Partly Cloudy with Nearby Thunderstorms 75 23.9 70 21.1 84 84 Calm 29.88 1012 10 16 0.00 0.00
3:13 pm 15:13 Sunny 77 25 72 22.2 85 85 Calm 29.85 1011 10 16 0.00 0.00
3:53 pm 15:53 Sunny 82 27.8 74 23.3 77 77 WSW 9 15 29.86 1011 10 16 0.00 0.00
4:53 pm 16:53 Sunny 83 28.3 71 21.7 67 67 NW 14 22 29.83 1010 10 16 0.00 0.00
5:53 pm 17:53 Partly Cloudy 81 27.2 69 20.6 67 67 WSW 13 20 29.83 1010 10 16 0.00 0.00
6:53 pm 18:53 Mostly Cloudy with Light Rain 76 24.4 73 22.8 91 91 VRB 3 6 29.83 1010 9 14 0.03 0.76
7:53 pm 19:53 Cloudy with Light Rain 76 24.4 74 23.3 94 94 SSW 6 9 29.84 1011 6 10 0.02 0.51
8:53 pm 20:53 Cloudy 76 24.4 74 23.3 94 94 SW 5 7 29.83 1010 9 14 0.00 0.03
9:53 pm 21:53 Cloudy with Light Rain 76 24.4 74 23.3 94 94 SW 9 15 29.83 1010 10 16 0.00 0.03
10:21 pm 22:21 Cloudy with Rain 74 23.3 73 22.8 97 97 S 5 7 29.83 1010 2 3 0.06 1.52
10:23 pm 22:23 Cloudy with Heavy Rain 74 23.3 73 22.8 97 97 SSW 3 6 29.83 1010 2 3 0.08 2.03
10:30 pm 22:30 Cloudy with Nearby Thunderstorms 73 23 73 23 100 100 S 5 7 29.83 1010 1 1 0.00 0.00
10:38 pm 22:38 Cloudy with Nearby Thunderstorms 73 23 73 23 100 100 W 7 11 29.83 1010 1 1 0.00 0.00
10:53 pm 22:53 Cloudy with Nearby Thunderstorms 73 22.8 73 22.8 100 100 SW 8 13 29.82 1010 2 3 0.50 12.70
10:55 pm 22:55 Cloudy with Nearby Thunderstorms 74 23.3 73 22.8 97 97 WSW 8 13 29.83 1010 3 5 0.00 0.03
11:09 pm 23:09 Cloudy with Light Rain 74 23.3 73 22.8 97 97 SW 8 13 29.83 1010 7 11 0.00 0.03
11:17 pm 23:17 Cloudy with Light Rain 74 23.3 74 23.3 100 100 SSW 6 9 29.83 1010 3 5 0.04 1.02
11:19 pm 23:19 Cloudy with Heavy Rain 74 23.3 74 23.3 100 100 SSW 5 7 29.83 1010 3 4 0.04 1.02
11:26 pm 23:26 Cloudy with Rain 73 23 73 23 100 100 SW 7 11 29.83 1010 3 5 0.00 0.00
11:46 pm 23:46 Cloudy with Light Rain 74 23.3 73 22.8 97 97 WSW 14 22 29.83 1010 10 16 0.06 1.52
11:53 pm 23:53 Cloudy with Light Rain 74 23.3 73 22.8 97 97 WSW 10 17 29.82 1010 10 16 0.06 1.52

Powered by AerisWeather